2018-102J (43839 NORAD) Tracking and Keplerian Element Data

This shows tracking and keplerian element data for the satellite.

Feedback or suggestion? Click here.




ElementValue
Catalog43839
Name2018-102J
Epoch Orbit453
Epoch Day6.19620492
Epoch Year2019
RAAN83.5021
Inclination97.6345
Eccentricity0.0017081
Argument of Perigee176.5312
Mean Anonmoly204.7387
Mean Motion15.08978954
Decay Rate6.67E-06
L11 43839U 18102J 19006.19620492 .00000667 00000-0 46217-4 0 9991
L22 43839 97.6345 83.5021 0017081 176.5312 204.7387 15.08978954 4533

Live tracking and technical data element details for 2018-102J (NORAD 43839). 2018-102J can be tracked NOW for your location showing map with azimuth and elevation plus other details from your city location.

Track the satellite on the map from your city or location and see movement details for azimuth, elevation, latitude, longitude, range, height, and movement on the map or in text.







IsCatalogInMostPopularTable: catalog: 43839, numindb: 23
Update: records affected: 1



GetName: 43839 2018-102J

Hit Count: updated at: Thu, 17 Jan 2019 15:32:56 GMT